Orange, MA

6:43 AM EDT on April 29, 2017 (GMT -0400)
Orange Municipal

Weather History for KORE - January, 2013

Change the Weather History Date:

Friday, January 4, 2013

  Actual Average Record
Temperature  
Mean Temperature 21 °F -  
Max Temperature 36 °F 31 °F 57 °F (2000)
Min Temperature 6 °F 15 °F -16 °F (2014)
Degree Days  
Heating Degree Days 44    
Moisture  
Dew Point 15 °F    
Average Humidity 66    
Maximum Humidity 88    
Minimum Humidity 50    
Precipitation  
Precipitation 0.00 in - - ()
Sea Level Pressure  
Sea Level Pressure 29.90 in    
Wind  
Wind Speed 4 mph (SW)    
Max Wind Speed 14 mph    
Max Gust Speed 23 mph    
Visibility 10 miles    
Events      
Averages and records for this station are not official NWS values.
T = Trace of Precipitation, MM = Missing Value Source: NWS Daily Summary

Daily Weather History Graph

Daily Weather History Graph

Search for Another Location

Airport or City:

Trip Planner

Search our weather history database for the weather conditions in past years. The results will help you decide how hot, cold, wet, or windy it might be!

Date:

Astronomy

Jan. 04, 2013 Rise Set
Actual Time 7:19 AM EST 4:29 PM EST
Civil Twilight 6:47 AM EST 5:01 PM EST
Nautical Twilight 6:12 AM EST 5:36 PM EST
Astronomical Twilight 5:37 AM EST 6:10 PM EST
Moon No Moon Rise 10:50 AM EST (1/4)
Length of Visible Light 10h 14m
Length of Day
9h 10m
Waning Gibbous, 55% of the Moon is Illuminated
Jan 4
Waning Gibbous
Jan 4
Last Quarter
Jan 11
New
Jan 18
First Quarter
Jan 26
Full

Hourly Weather History & Observations

Time (EST) Temp. Windchill Dew Point Humidity Pressure Visibility Wind Dir Wind Speed Gust Speed Precip Events Conditions
1:52 AM 10.0 °F - 6.1 °F 84% 29.99 in 8.0 mi Calm Calm - N/A   Overcast
2:52 AM 9.0 °F - 6.1 °F 88% 29.98 in 8.0 mi Calm Calm - N/A   Scattered Clouds
3:52 AM 6.1 °F - 3.0 °F 87% 29.97 in 8.0 mi Calm Calm - N/A   Scattered Clouds
4:52 AM 6.1 °F - 3.0 °F 87% 29.97 in 7.0 mi Calm Calm - N/A   Mostly Cloudy
5:52 AM 10.0 °F - 7.0 °F 87% 29.97 in 8.0 mi Calm Calm - N/A   Overcast
6:52 AM 10.9 °F - 7.0 °F 84% 29.97 in 9.0 mi Calm Calm - N/A   Overcast
7:52 AM 25.0 °F 16.3 °F 18.0 °F 75% 29.96 in 10.0 mi SSW 8.1 mph - N/A   Overcast
8:52 AM 27.0 °F 18.0 °F 18.0 °F 69% 29.96 in 10.0 mi South 9.2 mph - N/A   Scattered Clouds
9:52 AM 28.9 °F 20.4 °F 18.0 °F 64% 29.95 in 10.0 mi WSW 9.2 mph - N/A   Partly Cloudy
10:52 AM 33.1 °F 26.9 °F 18.0 °F 54% 29.92 in 10.0 mi WSW 6.9 mph - N/A   Clear
11:52 AM 34.0 °F 25.0 °F 19.0 °F 54% 29.88 in 10.0 mi SW 12.7 mph 21.9 mph N/A   Clear
12:52 PM 35.1 °F 25.9 °F 19.0 °F 52% 29.85 in 10.0 mi SW 13.8 mph 23.0 mph N/A   Partly Cloudy
1:52 PM 36.0 °F 27.1 °F 19.0 °F 50% 29.83 in 10.0 mi SW 13.8 mph 18.4 mph N/A   Clear
2:52 PM 35.1 °F 26.4 °F 19.9 °F 54% 29.83 in 10.0 mi SSW 12.7 mph - N/A   Clear
3:52 PM 35.1 °F 31.0 °F 19.0 °F 52% 29.83 in 10.0 mi SW 4.6 mph - N/A   Clear
4:52 PM 35.1 °F 27.9 °F 19.0 °F 52% 29.83 in 10.0 mi WSW 9.2 mph - N/A   Clear
5:52 PM 30.0 °F 25.2 °F 18.0 °F 61% 29.85 in 10.0 mi South 4.6 mph - N/A   Partly Cloudy
6:52 PM 27.0 °F 21.6 °F 18.0 °F 69% 29.87 in 10.0 mi SSW 4.6 mph - N/A   Clear
7:52 PM 30.0 °F 25.2 °F 18.0 °F 61% 29.86 in 10.0 mi WSW 4.6 mph - N/A   Clear
8:52 PM 28.9 °F - 17.1 °F 61% 29.86 in 10.0 mi Calm Calm - N/A   Scattered Clouds
9:52 PM 30.9 °F 27.5 °F 18.0 °F 59% 29.86 in 10.0 mi Variable 3.5 mph - N/A   Overcast
10:52 PM 33.1 °F 26.1 °F 17.1 °F 52% 29.86 in 10.0 mi West 8.1 mph - N/A   Overcast
11:52 PM 33.1 °F 23.4 °F 18.0 °F 54% 29.86 in 10.0 mi West 13.8 mph 21.9 mph N/A   Overcast